Total_Precipitation_Accumulation
0.94 0.96 0.98 0.93 0.92 0.92 0.96 1.09 1.28 1.26 1.02 0.84 0.82 0.85 0.87 0.87 0.94 0.86 0.76 0.90 0.94 0.93 0.97 1.02 1.04 1.03 1.02 1.05 1.13 1.21 1.31 1.40 1.50 1.63 1.74 1.83 2.01 2.30
0.78 0.82 0.85 0.86 0.90 0.95 1.04 1.12 1.25 1.41 1.31 0.99 0.87 0.86 0.89 0.88 0.92 0.78 0.70 0.84 0.81 0.80 0.81 0.82 0.83 0.83 0.85 0.90 0.97 1.04 1.08 1.14 1.24 1.40 1.58 1.74 1.89 2.03
0.71 0.74 0.75 0.79 0.88 0.93 1.02 1.12 1.21 1.33 1.36 1.12 0.91 0.84 0.83 0.78 0.74 0.64 0.59 0.58 0.56 0.67 0.66 0.65 0.68 0.71 0.71 0.75 0.82 0.89 0.94 1.01 1.10 1.24 1.41 1.57 1.69 1.79
0.73 0.76 0.77 0.82 0.90 0.97 1.04 1.09 1.13 1.16 1.18 1.06 0.87 0.76 0.70 0.63 0.59 0.54 0.49 0.46 0.43 0.55 0.56 0.56 0.59 0.61 0.59 0.60 0.66 0.74 0.81 0.89 0.96 1.05 1.15 1.24 1.36 1.50
0.75 0.80 0.81 0.86 0.90 0.91 0.92 0.93 0.92 0.91 0.90 0.87 0.75 0.65 0.60 0.55 0.54 0.49 0.44 0.42 0.38 0.42 0.45 0.45 0.51 0.57 0.56 0.57 0.62 0.67 0.68 0.68 0.70 0.74 0.84 0.95 1.06 1.18
0.82 0.84 0.84 0.86 0.84 0.82 0.80 0.77 0.76 0.77 0.77 0.78 0.75 0.65 0.58 0.53 0.53 0.50 0.45 0.40 0.37 0.35 0.39 0.40 0.46 0.53 0.55 0.51 0.47 0.46 0.48 0.52 0.57 0.62 0.69 0.76 0.84 0.91
0.89 0.86 0.83 0.84 0.82 0.78 0.73 0.70 0.70 0.73 0.77 0.82 0.79 0.68 0.56 0.48 0.44 0.40 0.41 0.40 0.38 0.36 0.39 0.39 0.40 0.39 0.39 0.42 0.45 0.44 0.46 0.51 0.58 0.66 0.71 0.76 0.81 0.88
0.88 0.82 0.77 0.78 0.74 0.74 0.73 0.71 0.74 0.81 0.89 0.92 0.82 0.64 0.46 0.39 0.39 0.44 0.51 0.58 0.51 0.34 0.39 0.39 0.37 0.38 0.36 0.36 0.46 0.51 0.52 0.53 0.55 0.60 0.65 0.68 0.71 0.78
0.72 0.67 0.62 0.59 0.61 0.56 0.61 0.69 0.72 0.80 0.81 0.75 0.64 0.48 0.41 0.41 0.53 0.65 0.62 0.60 0.48 0.34 0.43 0.49 0.43 0.41 0.38 0.41 0.48 0.47 0.48 0.51 0.52 0.57 0.58 0.60 0.63 0.68
0.53 0.48 0.45 0.44 0.45 0.49 0.54 0.61 0.58 0.56 0.55 0.50 0.48 0.47 0.47 0.49 0.61 0.75 0.73 0.66 0.52 0.42 0.45 0.54 0.45 0.43 0.39 0.40 0.46 0.47 0.51 0.55 0.58 0.60 0.59 0.58 0.60 0.64
0.36 0.36 0.37 0.35 0.44 0.56 0.60 0.61 0.51 0.44 0.46 0.51 0.56 0.59 0.61 0.58 0.58 0.69 0.79 0.85 0.72 0.50 0.43 0.46 0.42 0.40 0.40 0.40 0.43 0.50 0.50 0.49 0.48 0.49 0.49 0.51 0.54 0.61
0.30 0.32 0.40 0.41 0.52 0.62 0.57 0.57 0.50 0.42 0.44 0.46 0.45 0.44 0.42 0.43 0.49 0.55 0.77 1.07 0.92 0.67 0.44 0.54 0.57 0.61 0.74 0.47 0.42 0.44 0.45 0.47 0.48 0.48 0.48 0.47 0.50 0.55
0.30 0.30 0.33 0.46 0.54 0.59 0.54 0.45 0.50 0.57 0.53 0.48 0.47 0.44 0.42 0.40 0.40 0.41 0.56 1.02 1.26 0.92 0.48 0.84 1.01 0.72 0.82 0.59 0.41 0.40 0.40 0.48 0.54 0.55 0.59 0.61 0.64 0.70
0.30 0.27 0.32 0.47 0.51 0.50 0.44 0.44 0.53 0.53 0.43 0.45 0.47 0.45 0.44 0.44 0.43 0.44 0.49 0.60 0.82 0.92 0.67 0.99 1.40 1.01 1.03 0.78 0.46 0.39 0.39 0.49 0.67 0.73 0.74 0.83 0.90 0.93
0.34 0.36 0.37 0.39 0.37 0.38 0.41 0.43 0.44 0.40 0.41 0.46 0.47 0.42 0.39 0.41 0.44 0.46 0.47 0.48 0.49 0.52 0.59 0.72 1.03 1.02 1.09 0.99 0.65 0.45 0.47 0.50 0.63 0.79 0.88 0.97 1.07 1.10
0.41 0.44 0.41 0.36 0.34 0.32 0.34 0.34 0.32 0.33 0.42 0.48 0.47 0.42 0.41 0.42 0.43 0.47 0.54 0.56 0.60 0.50 0.47 0.51 0.63 0.87 0.96 0.73 0.76 0.68 0.62 0.70 0.69 0.80 0.95 1.01 1.13 1.27
0.49 0.41 0.38 0.35 0.32 0.30 0.30 0.29 0.30 0.32 0.36 0.38 0.46 0.48 0.45 0.43 0.41 0.43 0.55 0.63 0.69 0.58 0.49 0.43 0.43 0.51 0.65 0.74 0.77 0.66 0.66 0.77 0.88 0.98 1.10 1.08 1.06 1.27
0.50 0.40 0.35 0.34 0.33 0.30 0.30 0.30 0.30 0.33 0.38 0.44 0.48 0.51 0.53 0.51 0.49 0.45 0.51 0.61 0.62 0.53 0.51 0.49 0.49 0.55 0.57 0.57 0.65 0.76 0.78 0.88 0.92 0.94 1.06 1.18 1.11 1.07
0.40 0.35 0.33 0.33 0.34 0.35 0.35 0.37 0.36 0.35 0.42 0.51 0.54 0.55 0.56 0.54 0.52 0.51 0.51 0.54 0.52 0.47 0.48 0.52 0.62 0.88 0.90 0.61 0.47 0.68 1.00 1.08 0.97 0.95 1.03 1.20 1.34 1.17
0.30 0.29 0.30 0.32 0.37 0.41 0.45 0.49 0.49 0.46 0.47 0.50 0.51 0.53 0.57 0.60 0.56 0.51 0.50 0.54 0.56 0.50 0.45 0.42 0.51 0.88 1.26 1.08 0.83 0.73 0.83 1.09 1.26 1.33 1.19 1.07 1.15 1.09
0.26 0.27 0.30 0.35 0.42 0.48 0.53 0.56 0.59 0.60 0.58 0.59 0.56 0.55 0.59 0.67 0.60 0.49 0.50 0.49 0.55 0.55 0.51 0.39 0.37 0.53 0.84 1.01 0.87 0.66 0.74 0.83 1.11 1.56 1.53 1.31 1.12 0.99
0.30 0.32 0.35 0.41 0.49 0.56 0.59 0.60 0.60 0.57 0.59 0.61 0.58 0.58 0.60 0.68 0.67 0.58 0.56 0.57 0.54 0.53 0.49 0.39 0.35 0.42 0.64 0.89 0.77 0.59 0.61 0.61 0.63 0.74 1.15 1.70 2.14 2.13
0.35 0.38 0.41 0.46 0.52 0.57 0.58 0.57 0.56 0.53 0.56 0.64 0.65 0.63 0.64 0.66 0.61 0.62 0.61 0.61 0.61 0.55 0.51 0.46 0.40 0.40 0.46 0.57 0.65 0.58 0.51 0.50 0.50 0.56 0.82 1.10 1.40 1.62